www.pogodaiklimat.ru

Погода и климат >> Архив погоды >> Россия >> Дагестан >> Махачкала


АРХИВ ПОГОДЫ в Махачкале

Время (UTC), дата Ветер
(напр.,м/с)
 
Видим.   Явления Облачность Т
(С)
Тd
(С)
f
(%)
Тe
(С)
Тes
(С)
Комфортность P
(гПа)
Po
(гПа)
Тmin
(С)
Tmax
(С)
R
(мм)
R24
(мм)
S
(см)
18 16.09 ЮВ 4 20 км 6/0
[Ac trans Ci fib]
+21.7 +18.8 84 +27 +27 душно 1011.7 1013.8
21 16.09 Ю 1 20 км 4/0
[Ci fib]
+19.7 +16.7 83 +23 +23 комфорт 1011.8 1013.9
00 17.09 З 1 20 км {метель} 9/0
[Ac trans Ci fib]
+18.6 +13.3 71 +20 +20 тепло 1011.4 1013.5
03 17.09 З 1 20 км 6/0
[Ci fib]
+17.8 +13.4 75 +19 +19 по сезону 1011.8 1013.9 +17.7
06 17.09 СЗ 2 20 км ясно +23.3 +12.7 51 +26 +33 жарко 1011.6 1013.7 +17.7
09 17.09 СВ 2 20 км ясно +26.5 +17.8 59 +31 +43 душно 1009.7 1011.8
12 17.09 В 2
{10}
20 км 4/0
[Ac As Ci fib]
+23.6 +18.2 72 +28 +32 душно 1008.9 1011.0
15 17.09 штиль 0 20 км 10/8 600 м
[Sc Ac As]
+22.1 +18.3 79 +27 +27 душно 1009.5 1011.6 +27.5
18 17.09 З 3 20 км ясно +21.3 +17.4 78 +25 +25 комфорт 1010.8 1012.9
21 17.09 З 3 20 км 5/0
[Ac As Ci fib]
+20.3 +10.9 55 +22 +22 комфорт 1011.7 1013.8
00 18.09 З 2 20 км ясно +17.9 +11.0 64 +18 +18 тепло 1012.0 1014.1
03 18.09 З 1 20 км ясно +15.8 +11.2 74 +17 +17 по сезону 1013.7 1015.9 +15.8
06 18.09 СЗ 4 20 км ясно +23.8 +10.3 42 +25 +29 комфорт 1015.1 1017.2 230
09 18.09 В 2
{10}
20 км ясно +26.4 +13.7 46 +29 +40 жарко 1014.9 1017.0 220
12 18.09 ЮВ 4 20 км ясно +24.1 +15.9 60 +27 +31 жарко 1014.2 1016.3
15 18.09 ЮВ 3 20 км ясно +23.1 +13.9 56 +27 +27 душно 1013.5 1015.5 +26.7 9
18 18.09 ЮВ 3-12
{15}
20 км {ливн. осадки} ясно +22.0 +16.4 71 +26 +26 душно 1012.5 1014.6
21 18.09 ЮВ 3
{12}
н/о {ливн. осадки} н/о +21.6 +16.5 73 +25 +25 комфорт 1011.3 1013.4
00 19.09 З 2 20 км ясно +18.3 +13.4 73 +19 +19 тепло 1012.7 1014.8
03 19.09 СЗ 5-10
{13}
20 км ясно +18.3 +11.9 66 +18 +18 по сезону 1015.1 1017.3 +16.5 0.8
06 19.09 СЗ 7-13
{15}
20 км ясно +22.3 +9.9 45 +24 +26 комфорт 1018.8 1020.9
09 19.09 СЗ 3
{13}
20 км ясно +24.7 +6.1 30 +25 +34 комфорт 1019.3 1021.4
12 19.09 СВ 2 20 км ясно +23.6 +11.4 46 +25 +30 комфорт 1019.2 1021.3
15 19.09 В 2 н/о н/о +20.8 +11.5 55 +23 +23 комфорт 1020.3 1022.4 +25.2
18 19.09 Ю 1 10 км ясно +18.1 +11.8 67 +19 +19 по сезону 1020.7 1022.8
21 19.09 ЮВ 1 10 км ясно +19.3 +12.5 65 +22 +22 комфорт 1019.2 1021.3
00 20.09 ЮВ 1 10 км ясно +18.9 +12.8 68 +21 +21 комфорт 1018.4 1020.5
03 20.09 ЮВ 2 10 км ясно +19.3 +13.3 68 +21 +21 комфорт 1017.5 1019.7 +16.2
06 20.09 В 3 20 км 9/3 600 м
[Cb calv Ac trans Ci fib]
+22.4 +15.2 64 +26 +28 жарко 1016.5 1018.6 230
09 20.09 В 5-11
{11}
20 км 8/3 600 м
[Cb calv Ac trans Ci fib]
+23.4 +15.1 60 +28 +28 душно 1013.7 1015.7
12 20.09 В 3
{11}
4000 м дымка 8/0
[Cs]
+23.2 +15.6 62 +27 +31 душно 1011.8 1013.9
15 20.09 ЮВ 4
{10}
4000 м дымка 9/0
[Cs]
+21.4 +15.6 70 +25 +25 комфорт 1010.2 1012.3 +23.6
18 20.09 ЮВ 2 4000 м дымка н/о +20.2 +15.6 75 +23 +23 комфорт 1008.2 1010.3
21 20.09 штиль 0 4000 м 4/0
[Ci fib]
+10.5 +3.5 62 +10 +10 очень
холодно
1013.8 998.7
00 21.09 З 4 4000 м дымка 3/0
[Ci fib]
+16.8 +13.9 83 +16 +16 по сезону 1006.5 1008.6
03 21.09 СЗ 5
{12}
4000 м дымка 8/0
[Ac trans Ci fib]
+17.5 +12.7 73 +17 +17 по сезону 1007.9 1010.0 +16.4
06 21.09 СЗ 7-16
{16}
10 км 3/3 600 м
[Cu med, cong]
+15.9 +8.9 63 +14 +16 холодно 1011.7 1013.8 +15.9
09 21.09 СЗ 11-20
{22}
20 км 8/4 600 м
[Sc Ac As Ci fib]
+17.1 +7.1 52 +15 +16 холодно 1012.9 1015.1 250
12 21.09 СЗ 8-15
{20}
20 км 10/8 600 м
[Sc Ac As]
+14.8 +6.6 58 +13 +13 очень
холодно
1015.4 1017.5 250
15 21.09 СЗ 4
{15}
10 км слаб. ливневой дождь 10/10 600 м
[Cb calv]
+12.6 +8.4 76 +11 +11 очень
холодно
1017.1 1019.3 +17.6 0.0
18 21.09 З 2 20 км {ливн. осадки} 10/5
[Sc Ac As]
+12.0 +8.9 81 +11 +11 очень
холодно
1018.9 1021.1
21 21.09 СЗ 3 20 км 10/8 600 м
[Sc Ac As]
+12.5 +7.4 71 +11 +11 холодно 1018.9 1021.1
00 22.09 З 4 20 км 8/4 600 м
[Sc Ac As]
+12.1 +6.8 70 +10 +10 холодно 1019.8 1022.0
03 22.09 СЗ 5 20 км 6/4 600 м
[Sc Ac As Ci fib]
+12.3 +5.1 61 +10 +10 очень
холодно
1021.8 1024.0 +11.8 1
06 22.09 СЗ 6-13
{13}
20 км 3/0
[Ci fib]
+15.5 +4.3 47 +14 +16 холодно 1023.4 1025.6
09 22.09 СЗ 6-11
{13}
20 км ясно +18.7 +0.7 30 +18 +23 прохладно 1022.4 1024.6
12 22.09 СЗ 2-11
{11}
20 км ясно +20.0 +0.5 27 +21 +26 комфорт 1020.8 1022.9
15 22.09 ЮВ 3
{13}
20 км ясно +16.9 +5.1 46 +17 +17 прохладно 1020.3 1022.5 +20.3 2
18 22.09 Ю 1 20 км ясно +15.2 +6.8 57 +16 +16 по сезону 1020.6 1022.8
21 22.09 З 1
{10}
20 км {ливн. осадки} ясно +9.5 +5.6 77 +9 +9 очень
холодно
1020.2 1022.4
00 23.09 З 1 20 км {ливн. осадки} ясно +9.3 +4.4 71 +9 +9 холодно 1019.7 1021.9
03 23.09 СЗ 2 20 км ясно +9.5 +3.8 68 +8 +8 очень
холодно
1019.8 1022.0 +8.4
06 23.09 СЗ 1-10
{11}
20 км {ливн. осадки} ясно +20.3 +1.8 29 +22 +29 комфорт 1020.2 1022.4 +4.4
09 23.09 В 2 20 км ясно +22.0 +6.0 35 +23 +34 комфорт 1018.5 1020.6
12 23.09 В 2
{10}
20 км ясно +21.3 +7.2 40 +22 +27 комфорт 1017.5 1019.6

 

Местоположение метеостанции Махачкала (Дагестан, Россия): широта 43.02 долгота 47.48 высота над уровнем моря -19 м.

В архиве по умолчанию представлена погода в Махачкале за последнюю неделю. Архивные данные за месяц целиком и за предыдущие месяцы, начиная с января 2011 года, Вы можете получить, выбрав интересующий диапазон дат из раскрывающегося списка и нажав кнопку "Ввод!".


*Определитесь, кто Вы:
робот инопланетянин человек

Внимание! Время в таблицах - всемирное. Для получения местного времени необходимо прибавить поправку, которая равна 3 ч.

Смотрите также архив погоды в соседних городах и на ближайших метеорологических станциях:

Погода в Буйнакске (Дагестан, Россия) (37 км)
Погода в Сергокале (Дагестан, Россия) (65 км)
Погода в Изберге (Дагестан, Россия) (65 км)
Погода в Куппе (Дагестан, Россия) (73 км)
Погода в Хасавюрте (Дагестан, Россия) (77 км)
Погода в Гунибе (Дагестан, Россия) (81 км)
Погода в Хунзахе (Дагестан, Россия) (81 км)
Погода в Бабаюрте (Дагестан, Россия) (86 км)
Погода в Кумухе (Дагестан, Россия) (104 км)
Погода в Шелковской (Чечня, Россия) (106 км)

Пояснения к столбцам:

Ветер - указаны скорость ветра в м/с - средняя за 10 мин, порывы в срок и между сроками (в фигурных скобках) и направление, откуда дует ветер: С - северный, СВ - северо-восточный, В - восточный, ЮВ - юго-восточный, Ю - южный, ЮЗ - юго-западный, З - западный, СЗ - северо-западный.
Видимость - горизонтальная дальность видимости в метрах или километрах. При видимости от 1 до 10 км при отсутствии осадков обычно наблюдается дымка, при ухудшении видимости до 1 км и менее - туман. В сухую погоду видимость может ухудшаться дымом, пылью или мглою.
Явления - указаны атмосферные явления, наблюдавшиеся в срок или в последний час перед сроком; фигурными скобками обозначены явления, наблюдавшиеся между сроками (за 1-3 часа до срока); квадратными скобками обозначены град или гололедные отложения с указанием их диаметра в мм.
Облачность - указаны через наклонную черту общая и нижняя облачность в баллах и высота нижней границы облаков в метрах; квадратными скобками обозначены формы облаков: Ci - перистые, Cs - перисто-слоистые, Cc - перисто-кучевые, Ac - высококучевые, As - высокослоистые, Sc - слоисто-кучевые, Ns - слоисто-дождевые, Cu - кучевые, Cb - кучево-дождевые. Подробнее классификацию облаков см. в Атласе облаков (PDF).
T - Температура воздуха - температура, измеренная на высоте 2 м над землей.
Td - Температура точки росы - температура, при понижении до которой содержащийся в воздухе водяной пар достигнет насыщения.
f - Относительная влажность воздуха - влажноcть воздуха, измеренная на высоте 2 м над землей.
Te - Эффективная температура - температура, которую ощущает одетый по сезону человек в тени. Характеристика душности погоды. При расчете учитывается влияние влажности воздуха и скорости ветра на теплоощущения человека.
Tes - Эффективная температура на солнце - температура, которую ощущает человек, с поправкой на солнечный нагрев. Характеристика знойности погоды. Зависит от высоты солнца над горизонтом, облачности и скорости ветра. Ночью, в пасмурную погоду, а также при ветре 12 м/с и более поправка равна нулю.
P - Атмосферное давление - приведенное к уровню моря атмосферное давление.
Po - Атмосферное давление - измеренное на уровне метеостанции атмосферное давление.
Tmin - Минимальная температура - минимум температуры воздуха на высоте 2 м над землей.
Tmax - Максимальная температура - максимум температуры воздуха на высоте 2 м над землей.
R - Количество осадков - Количество выпавших осадков за период времени, мм. При наведении курсора мыши на число - период времени, за который выпало указанное количество осадков.
R24 - Количество осадков - Количество выпавших осадков за 24 часа, мм.
S - Снежный покров - Высота снежного покрова, см. При наведении курсора мыши на число - состояние снежного покрова и степень покрытия местности в баллах.